Location: Carabito
(9.8355°N, 67.9249°W)
Time: 11:27:03
(UTC+00:00)

CZ-2C R/B - Pass Details

Date: 23 May 2024
Orbit: 665 x 780 km, 98.4° (Epoch: 24 June)

Event Time Altitude Azimuth Distance (km) Brightness Sun altitude
Rises 08:19:06 0° 356° (N) 3,033 5.9 -25.6°
Reaches altitude 10° 08:21:32 10° 347° (NNW) 2,105 4.9 -25.1°
Enters shadow 08:23:41 23° 326° (NNW) 1,418 3.8 -24.7°
